Location: Terra Rouge Observatory
(46.0000°N, 62.7500°W)
Time: 03:32:07
(UTC-03:00)

Amateur Radio Satellites - All Passes

Search period start: 28 July 2017 03:02
Search period end: 29 July 2017 03:02
Location: Terra Rouge Observatory, 46.0000°N, 62.7500°W

Satellite Date Start Highest point End Downlink Frequencies (MHz)
Time Altitude Azimuth
Gurwin Techsat 1B 28 Jul 03:18:02 03:23:24 87° 105° (ESE) 03:28:43 435.225
RS-15 28 Jul 03:23:24 03:31:29 22° 262° (W) 03:39:21 29.354- 29.394
AO-7 28 Jul 03:26:03 03:32:08 22° 90° (E) 03:38:08 .
CUBESAT XI-V 28 Jul 03:34:43 03:37:55 19° 62° (ENE) 03:41:08 437.345
ISS 28 Jul 03:35:18 03:37:19 16° 225° (SW) 03:39:21 437.550
YUBILEINY 28 Jul 03:36:28 03:38:48 11° 46° (NE) 03:41:08 435.215
BEESAT 28 Jul 03:54:49 03:59:25 48° 260° (W) 04:04:04 436.000
PCSat 28 Jul 04:05:28 04:09:33 22° 107° (ESE) 04:13:39 145.827
Oscar 19 28 Jul 04:06:34 04:10:46 26° 297° (WNW) 04:14:58 437.125/150
ITUPSAT 1 28 Jul 04:10:36 04:14:58 35° 263° (W) 04:19:22 437.325
ITAMSAT 1 28 Jul 04:25:14 04:30:15 45° 99° (E) 04:35:13 435.822/435.867
MOZHAYETS 4 28 Jul 04:27:45 04:31:48 31° 264° (W) 04:35:52
KKS-1 28 Jul 04:44:31 04:48:50 49° 70° (ENE) 04:53:11 437.445
Gurwin Techsat 1B 28 Jul 04:59:31 05:02:38 16° 303° (WNW) 05:05:43 435.225
STARS 28 Jul 05:05:17 05:09:20 35° 68° (ENE) 05:13:23 437.465
CUBESAT XI-V 28 Jul 05:10:24 05:14:53 54° 260° (W) 05:19:26 437.345
AO-7 28 Jul 05:17:30 05:25:56 88° 290° (WNW) 05:34:17 .
DOVE 4 28 Jul 05:21:34 05:24:08 14° 86° (E) 05:26:38 437.250
YUBILEINY 28 Jul 05:29:52 05:38:20 49° 72° (ENE) 05:46:41 435.215
SO-50 28 Jul 05:35:32 05:39:16 26° 115° (ESE) 05:42:59 436.795
PCSat 28 Jul 05:47:06 05:52:29 63° 306° (NW) 05:57:54 145.827
ITAMSAT 1 28 Jul 06:05:10 06:09:29 27° 297° (WNW) 06:13:47 435.822/435.867
STRAND 1 28 Jul 06:06:04 06:08:45 14° 56° (ENE) 06:11:26 437.568
XW-2F 28 Jul 06:12:46 06:13:30 10° 89° (E) 06:14:15 145.980 - 146.000
KKS-1 28 Jul 06:22:31 06:25:39 19° 268° (W) 06:28:49 437.445
CUTE-I 28 Jul 06:36:54 06:41:05 23° 92° (E) 06:45:15 437.470
XW-2D 28 Jul 06:41:55 06:45:05 25° 95° (E) 06:48:14 145.860 - 145.880
STARS 28 Jul 06:42:03 06:45:44 25° 265° (W) 06:49:26 437.465
HO-68 28 Jul 06:50:01 06:52:29 12° 84° (E) 06:54:57 435.675
XW-2B 28 Jul 06:51:55 06:55:18 31° 96° (E) 06:58:41 145.730 - 145.750
DOVE 4 28 Jul 06:57:13 07:02:32 85° 284° (WNW) 07:07:35 437.250
NUDT-PHONESAT 28 Jul 07:03:35 07:06:55 31° 97° (E) 07:10:14 437.300
XW-2C 28 Jul 07:09:15 07:12:56 51° 99° (E) 07:16:36 145.795 - 145.815
AO-7 28 Jul 07:11:18 07:17:40 25° 312° (NW) 07:24:01 .
CUTE 1.7 + AOD 2 28 Jul 07:11:56 07:12:09 10° 87° (E) 07:12:22 437.475
SO-50 28 Jul 07:15:10 07:19:30 45° 313° (NW) 07:23:52 436.795
KAITUO 1B 28 Jul 07:22:48 07:26:29 56° 101° (E) 07:30:09 145.475/437.950
FO-29 28 Jul 07:26:49 07:30:14 14° 46° (NE) 07:33:37 435.910
YUBILEINY 28 Jul 07:27:00 07:34:59 41° 274° (W) 07:42:55 435.215
PCSat 28 Jul 07:33:39 07:37:00 16° 328° (NNW) 07:40:20 145.827
LilacSat-2 28 Jul 07:36:34 07:40:21 70° 285° (WNW) 07:44:08 437.200
STRAND 1 28 Jul 07:42:01 07:47:11 89° 79° (E) 07:52:22 437.568
XW-2F 28 Jul 07:44:19 07:48:02 63° 286° (WNW) 07:51:45 145.980 - 146.000
UWE-3 28 Jul 08:15:24 08:17:48 15° 90° (E) 08:20:12 435.000/436.395/437.385
XW-2D 28 Jul 08:16:03 08:19:13 26° 292° (WNW) 08:22:22 145.860 - 145.880
CUTE-I 28 Jul 08:16:14 08:21:27 54° 290° (WNW) 08:26:38 437.470
XW-2B 28 Jul 08:26:26 08:29:20 21° 293° (WNW) 08:32:14 145.730 - 145.750
HO-68 28 Jul 08:34:24 08:41:33 67° 103° (ESE) 08:48:39 435.675
DOVE 4 28 Jul 08:36:41 08:39:20 14° 304° (WNW) 08:41:56 437.250
NUDT-PHONESAT 28 Jul 08:37:53 08:40:38 20° 294° (WNW) 08:43:22 437.300
Oscar 11 28 Jul 08:42:05 08:43:30 11° 88° (E) 08:44:55 .
CUTE 1.7 + AOD 2 28 Jul 08:44:16 08:48:32 82° 286° (WNW) 08:52:49 437.475
XW-2C 28 Jul 08:44:40 08:46:44 14° 297° (WNW) 08:48:46 145.795 - 145.815
SEEDS 28 Jul 08:49:46 08:54:01 74° 103° (ESE) 08:58:14 437.485
UNISAT 6 28 Jul 08:52:45 08:55:22 15° 61° (ENE) 08:57:57 437.425
KAITUO 1B 28 Jul 08:58:19 09:00:02 13° 297° (WNW) 09:01:47 145.475/437.950
AO-73 28 Jul 08:58:44 09:01:57 21° 93° (E) 09:05:08 145.935
SO-50 28 Jul 08:59:16 09:01:06 12° 335° (NNW) 09:02:57 436.795
CUBEBUG 2 28 Jul 08:59:46 09:04:01 75° 103° (ESE) 09:08:10 437.445
XW-2A 28 Jul 09:00:46 09:04:07 78° 284° (WNW) 09:07:26 145.665 - 145.685
FO-29 28 Jul 09:06:06 09:13:33 51° 66° (ENE) 09:21:01 435.910
PRISM 28 Jul 09:20:59 09:24:05 21° 64° (ENE) 09:27:12 437.425
AAUSAT CUBESAT 2 28 Jul 09:22:51 09:27:03 79° 104° (ESE) 09:31:14 437.432
STRAND 1 28 Jul 09:24:53 09:27:04 13° 273° (W) 09:29:14 437.568
TIGRISAT 28 Jul 09:34:11 09:38:17 33° 68° (ENE) 09:42:20 435.000
UWE-3 28 Jul 09:50:33 09:54:38 52° 287° (WNW) 09:58:38 435.000/436.395/437.385
DELFI C3 28 Jul 09:54:16 09:56:54 17° 91° (E) 09:59:31 145.870
M-CUBED/EXP-1 PRIME 28 Jul 09:55:36 09:58:58 30° 61° (ENE) 10:02:35 437.505
ZACube-1 28 Jul 09:56:10 10:00:20 82° 284° (WNW) 10:04:28 437.345
Oscar 11 28 Jul 10:15:50 10:20:10 75° 285° (WNW) 10:24:28 .
HO-68 28 Jul 10:22:52 10:28:46 29° 303° (WNW) 10:34:40 435.675
UNISAT 6 28 Jul 10:26:57 10:31:34 71° 259° (WSW) 10:36:06 437.425
SEEDS 28 Jul 10:27:12 10:29:08 13° 300° (WNW) 10:31:03 437.485
AIST 2D 28 Jul 10:31:44 10:33:37 14° 64° (ENE) 10:35:31 435.315
AO-73 28 Jul 10:34:30 10:38:18 35° 290° (WNW) 10:42:04 145.935
EO-79 28 Jul 10:35:58 10:36:27 10° 58° (ENE) 10:36:56 145.935-145.965
CUBEBUG 2 28 Jul 10:38:15 10:40:01 12° 301° (WNW) 10:41:47 437.445
NO-84 28 Jul 10:41:18 10:44:09 43° 137° (SE) 10:47:13 435.350 FM
FO-29 28 Jul 10:51:25 10:58:37 41° 265° (W) 11:05:57 435.910
PRISM 28 Jul 10:55:15 10:59:06 39° 262° (W) 11:03:01 437.425
AAUSAT CUBESAT 2 28 Jul 11:00:18 11:01:54 12° 300° (WNW) 11:03:30 437.432
EO-88 28 Jul 11:02:10 11:05:47 59° 100° (E) 11:09:23 145.990 - 145.960
PCSat 28 Jul 11:07:49 11:09:14 11° 22° (NNE) 11:10:38 145.827
TIGRISAT 28 Jul 11:10:58 11:14:58 29° 265° (W) 11:18:55 435.000
BEESAT 3 28 Jul 11:25:42 11:27:46 14° 110° (ESE) 11:29:52 437.485
DELFI C3 28 Jul 11:28:03 11:31:54 44° 288° (WNW) 11:35:42 145.870
M-CUBED/EXP-1 PRIME 28 Jul 11:30:13 11:33:24 25° 261° (W) 11:36:48 437.505
DUCHIFAT 1 28 Jul 11:35:47 11:39:32 32° 68° (ENE) 11:43:18 145.980
POLYITAN 1 28 Jul 11:43:25 11:47:30 46° 71° (ENE) 11:51:36 437.675
BUGSAT 1 28 Jul 11:51:28 11:53:58 16° 62° (ENE) 11:56:28 437.445
ESTCUBE 1 28 Jul 11:55:06 11:58:46 23° 94° (E) 12:02:23 437.505/2401.250
QB50P2 28 Jul 11:56:32 12:00:46 71° 75° (ENE) 12:05:02 145.880/145.840
AIST 2D 28 Jul 12:03:11 12:06:29 42° 262° (W) 12:09:49 435.315
NANOSAT C BR1 28 Jul 12:04:51 12:09:05 72° 74° (ENE) 12:13:19 145.865
EO-79 28 Jul 12:07:13 12:11:29 84° 74° (ENE) 12:15:45 145.935-145.965
Oscar 19 28 Jul 12:09:52 12:12:30 14° 56° (NE) 12:15:08 437.125/150
BEESAT 2 28 Jul 12:13:35 12:15:54 15° 111° (ESE) 12:18:14 435.950
NO-84 28 Jul 12:18:52 12:21:41 30° 338° (NNW) 12:24:44 435.350 FM
SO-50 28 Jul 12:24:20 12:26:23 13° 26° (NNE) 12:28:27 436.795
VELOX 1 28 Jul 12:26:51 12:28:02 11° 88° (E) 12:29:13 145.980
LO-87 28 Jul 12:27:58 12:31:35 87° 103° (ESE) 12:35:09 145.935 - 145.965
EO-88 28 Jul 12:37:35 12:38:59 12° 298° (WNW) 12:40:23 145.990 - 145.960
AO-7 28 Jul 12:41:50 12:44:25 12° 33° (NNE) 12:47:01 .
AO-85 28 Jul 12:47:15 12:51:14 86° 125° (SE) 12:55:10 145.980
SPROUT 28 Jul 12:48:07 12:51:24 21° 93° (E) 12:54:39 437.525
PCSat 28 Jul 12:49:24 12:54:22 34° 46° (NE) 12:59:17 145.827
BEESAT 3 28 Jul 13:00:51 13:04:50 67° 309° (NW) 13:08:53 437.485
Gurwin Techsat 1B 28 Jul 13:03:00 13:07:23 27° 63° (ENE) 13:11:47 435.225
DUCHIFAT 1 28 Jul 13:11:39 13:15:13 26° 265° (W) 13:18:47 145.980
POLYITAN 1 28 Jul 13:20:36 13:23:31 18° 268° (W) 13:26:27 437.675
BUGSAT 1 28 Jul 13:24:42 13:28:53 60° 259° (W) 13:33:04 437.445
ESTCUBE 1 28 Jul 13:31:28 13:35:41 39° 291° (WNW) 13:39:54 437.505/2401.250
RS-15 28 Jul 13:31:50 13:35:49 12° 91° (E) 13:39:49 29.354- 29.394
QB50P2 28 Jul 13:35:23 13:37:02 12° 271° (W) 13:38:41 145.880/145.840
NANOSAT C BR1 28 Jul 13:43:43 13:45:16 12° 271° (W) 13:46:50 145.865
Oscar 19 28 Jul 13:45:56 13:51:04 88° 75° (ENE) 13:56:14 437.125/150
BEESAT 2 28 Jul 13:49:13 13:53:11 61° 309° (NW) 13:57:13 435.950
DX 1 28 Jul 13:54:22 13:58:09 27° 95° (E) 14:01:54 434.975-435.025
NO-84 28 Jul 13:57:32 13:59:58 18° 0° (N) 14:02:31 435.350 FM
O/OREOS (USA 219) 28 Jul 14:00:04 14:01:47 12° 98° (E) 14:03:31 437.305
VELOX 1 28 Jul 14:00:34 14:05:04 83° 285° (WNW) 14:09:31 145.980
SO-50 28 Jul 14:03:31 14:07:56 48° 48° (NE) 14:12:22 436.795
ITAMSAT 1 28 Jul 14:09:12 14:12:02 15° 56° (NE) 14:14:52 435.822/435.867
SPROUT 28 Jul 14:23:28 14:27:26 39° 290° (WNW) 14:31:23 437.525
AO-7 28 Jul 14:27:20 14:34:55 40° 57° (ENE) 14:42:31 .
UKube-1 28 Jul 14:29:00 14:33:08 41° 99° (E) 14:37:14 .
50 SAT 28 Jul 14:29:35 14:33:01 77° 286° (WNW) 14:36:26 437.505
AO-85 28 Jul 14:29:46 14:32:10 15° 326° (NW) 14:34:34 145.980
PCSat 28 Jul 14:32:44 14:37:53 45° 246° (WSW) 14:43:01 145.827
BEESAT 3 28 Jul 14:41:11 14:43:11 13° 329° (NNW) 14:45:11 437.485
Gurwin Techsat 1B 28 Jul 14:41:57 14:47:04 47° 261° (W) 14:52:13 435.225
Oscar 19 28 Jul 15:28:58 15:31:05 12° 273° (W) 15:33:13 437.125/150
BEESAT 2 28 Jul 15:29:55 15:31:46 13° 330° (NNW) 15:33:37 435.950
DX 1 28 Jul 15:30:25 15:34:20 32° 293° (WNW) 15:38:14 434.975-435.025
RS-15 28 Jul 15:33:34 15:45:16 56° 113° (ESE) 15:57:07 29.354- 29.394
NO-84 28 Jul 15:35:06 15:38:15 29° 21° (NNE) 15:41:39 435.350 FM
O/OREOS (USA 219) 28 Jul 15:36:03 15:40:32 76° 296° (WNW) 15:45:01 437.305
VELOX 1 28 Jul 15:39:34 15:40:45 11° 303° (WNW) 15:41:56 145.980
SO-50 28 Jul 15:44:29 15:48:08 24° 246° (WSW) 15:51:47 436.795
ITAMSAT 1 28 Jul 15:45:31 15:50:45 89° 71° (ENE) 15:56:01 435.822/435.867
BEESAT 28 Jul 15:52:17 15:56:37 34° 97° (E) 16:00:56 436.000
UKube-1 28 Jul 16:05:34 16:08:54 22° 296° (WNW) 16:12:13 .
ITUPSAT 1 28 Jul 16:07:57 16:12:34 47° 100° (E) 16:17:08 437.325
AO-7 28 Jul 16:19:16 16:27:25 56° 257° (WSW) 16:35:39 .
MOZHAYETS 4 28 Jul 16:19:25 16:23:51 49° 99° (E) 16:28:17
DOVE 4 28 Jul 16:28:39 16:32:09 19° 60° (ENE) 16:35:44 437.250
CUBESAT XI-V 28 Jul 17:04:21 17:08:30 30° 95° (E) 17:12:39 437.345
NO-84 28 Jul 17:12:17 17:15:59 70° 218° (SW) 17:19:59 435.350 FM
O/OREOS (USA 219) 28 Jul 17:19:01 17:20:45 12° 316° (NW) 17:22:29 437.305
HO-68 28 Jul 17:22:00 17:25:48 15° 47° (NE) 17:29:37 435.675
XW-2D 28 Jul 17:25:58 17:28:35 18° 65° (ENE) 17:31:12 145.860 - 145.880
ITAMSAT 1 28 Jul 17:28:38 17:30:55 13° 272° (W) 17:33:14 435.822/435.867
BEESAT 28 Jul 17:30:10 17:34:18 30° 295° (WNW) 17:38:25 436.000
XW-2B 28 Jul 17:35:45 17:38:42 22° 67° (ENE) 17:41:40 145.730 - 145.750
NUDT-PHONESAT 28 Jul 17:45:26 17:48:16 21° 67° (ENE) 17:51:06 437.300
RS-15 28 Jul 17:45:51 17:57:57 58° 319° (NW) 18:10:05 29.354- 29.394
ITUPSAT 1 28 Jul 17:46:24 17:50:06 23° 297° (WNW) 17:53:47 437.325
XW-2C 28 Jul 17:52:46 17:56:11 34° 70° (ENE) 17:59:36 145.795 - 145.815
MOZHAYETS 4 28 Jul 17:57:21 18:00:41 20° 297° (WNW) 18:04:00
CUTE-I 28 Jul 18:00:45 18:05:53 47° 68° (ENE) 18:11:02 437.470
DOVE 4 28 Jul 18:04:15 18:09:13 69° 259° (W) 18:14:29 437.250
KAITUO 1B 28 Jul 18:05:00 18:08:24 36° 71° (ENE) 18:11:48 145.475/437.950
CUTE 1.7 + AOD 2 28 Jul 18:06:46 18:07:53 11° 59° (ENE) 18:09:00 437.475
KKS-1 28 Jul 18:09:06 18:13:35 70° 103° (ESE) 18:18:01 437.445
LilacSat-2 28 Jul 18:20:20 18:24:06 79° 75° (ENE) 18:27:53 437.200
CUBEBUG 2 28 Jul 18:26:46 18:28:08 11° 58° (ENE) 18:29:29 437.445
XW-2F 28 Jul 18:27:02 18:30:45 84° 75° (ENE) 18:34:30 145.980 - 146.000
STARS 28 Jul 18:27:52 18:32:08 47° 99° (E) 18:36:21 437.465
YUBILEINY 28 Jul 18:33:38 18:42:02 51° 89° (E) 18:50:28 435.215
CUBESAT XI-V 28 Jul 18:41:42 18:45:51 32° 293° (WNW) 18:50:01 437.345
NO-84 28 Jul 18:51:37 18:52:58 11° 234° (SW) 18:54:20 435.350 FM
XW-2D 28 Jul 18:59:03 19:02:32 36° 263° (W) 19:06:01 145.860 - 145.880
HO-68 28 Jul 19:05:09 19:12:13 63° 67° (ENE) 19:19:17 435.675
XW-2B 28 Jul 19:09:28 19:12:46 29° 264° (W) 19:16:05 145.730 - 145.750
UWE-3 28 Jul 19:14:23 19:17:31 19° 64° (ENE) 19:20:37 435.000/436.395/437.385
NUDT-PHONESAT 28 Jul 19:18:47 19:22:01 29° 264° (W) 19:25:15 437.300
nSIGHT-1 28 Jul 19:19:10 19:20:55 14° 134° (SE) 19:22:40 .
ZACube-1 28 Jul 19:20:35 19:22:25 12° 60° (ENE) 19:24:14 437.345
XW-2C 28 Jul 19:27:48 19:30:29 18° 267° (W) 19:33:10 145.795 - 145.815
XW-2A 28 Jul 19:33:59 19:37:14 47° 73° (ENE) 19:40:29 145.665 - 145.685
AO-85 28 Jul 19:35:41 19:39:01 23° 40° (NE) 19:42:29 145.980
BEESAT 3 28 Jul 19:38:19 19:41:33 22° 40° (NE) 19:44:44 437.485
CUTE 1.7 + AOD 2 28 Jul 19:38:51 19:43:03 87° 260° (W) 19:47:16 437.475
Oscar 11 28 Jul 19:39:15 19:41:18 13° 60° (ENE) 19:43:21 .
KAITUO 1B 28 Jul 19:40:03 19:42:32 17° 268° (W) 19:45:01 145.475/437.950
Tancredo 1 28 Jul 19:41:16 19:44:07 49° 146° (SSE) 19:46:58 437.200
CUTE-I 28 Jul 19:41:40 19:46:08 26° 266° (W) 19:50:37 437.470
SEEDS 28 Jul 19:43:22 19:47:29 67° 74° (ENE) 19:51:39 437.485
KKS-1 28 Jul 19:47:04 19:49:35 15° 301° (WNW) 19:52:06 437.445
STRAND 1 28 Jul 19:50:33 19:54:44 25° 93° (E) 19:58:53 437.568
AO-73 28 Jul 19:56:21 19:59:53 24° 66° (ENE) 20:03:20 145.935
CUBEBUG 2 28 Jul 19:59:22 20:04:02 83° 75° (ENE) 20:08:35 437.445
RS-15 28 Jul 20:03:03 20:13:48 33° 350° (N) 20:24:24 29.354- 29.394
STARS 28 Jul 20:04:55 20:08:09 20° 297° (WNW) 20:11:21 437.465
AAUSAT CUBESAT 2 28 Jul 20:14:50 20:18:55 69° 74° (ENE) 20:23:03 437.432
ISS 28 Jul 20:15:29 20:18:33 40° 144° (SE) 20:21:39 437.550
BEESAT 2 28 Jul 20:27:15 20:30:39 24° 41° (NE) 20:34:01 435.950
YUBILEINY 28 Jul 20:30:53 20:39:03 41° 291° (WNW) 20:47:16 435.215
DELFI C3 28 Jul 20:42:36 20:44:45 14° 62° (ENE) 20:46:54 145.870
UWE-3 28 Jul 20:49:14 20:53:39 51° 261° (W) 20:57:58 435.000/436.395/437.385
nSIGHT-1 28 Jul 20:53:39 20:56:53 86° 154° (SSE) 21:00:07 .
ZACube-1 28 Jul 20:53:43 20:58:07 80° 259° (W) 21:02:26 437.345
HO-68 28 Jul 20:54:24 21:00:23 28° 267° (W) 21:06:25 435.675
XW-2A 28 Jul 21:09:15 21:10:14 11° 270° (W) 21:11:14 145.665 - 145.685
Oscar 11 28 Jul 21:12:34 21:16:51 74° 258° (WSW) 21:21:10 .
BEESAT 3 28 Jul 21:15:28 21:19:22 50° 240° (WSW) 21:23:11 437.485
AO-85 28 Jul 21:15:33 21:19:40 55° 238° (WSW) 21:24:03 145.980
Tancredo 1 28 Jul 21:16:50 21:19:34 35° 345° (NNW) 21:22:19 437.200
SEEDS 28 Jul 21:22:01 21:23:38 12° 272° (W) 21:25:16 437.485
STRAND 1 28 Jul 21:29:15 21:34:07 46° 292° (WNW) 21:38:58 437.568
AO-73 28 Jul 21:31:56 21:35:57 35° 263° (W) 21:39:55 145.935
CUBEBUG 2 28 Jul 21:39:36 21:41:11 12° 272° (W) 21:42:45 437.445
EO-88 28 Jul 21:42:06 21:45:25 35° 71° (ENE) 21:48:47 145.990 - 145.960
ISS 28 Jul 21:51:54 21:55:03 43° 343° (NNW) 21:58:11 437.550
AAUSAT CUBESAT 2 28 Jul 21:53:28 21:54:51 11° 272° (W) 21:56:15 437.432
FO-29 28 Jul 21:59:15 22:05:27 33° 92° (E) 22:10:59 435.910
BEESAT 2 28 Jul 22:04:41 22:08:36 45° 240° (WSW) 22:12:26 435.950
DELFI C3 28 Jul 22:15:11 22:19:04 56° 260° (W) 22:23:00 145.870
UNISAT 6 28 Jul 22:16:58 22:20:05 19° 92° (E) 22:23:09 437.425
RS-15 28 Jul 22:19:24 22:30:43 39° 25° (NNE) 22:41:34 29.354- 29.394
nSIGHT-1 28 Jul 22:30:35 22:33:32 32° 350° (N) 22:36:30 .
PRISM 28 Jul 22:34:09 22:37:29 23° 94° (E) 22:40:48 437.425
Tancredo 1 28 Jul 22:52:53 22:55:27 26° 5° (N) 22:58:01 437.200
ESTCUBE 1 28 Jul 22:56:51 23:00:42 29° 66° (ENE) 23:04:34 437.505/2401.250
TIGRISAT 28 Jul 22:59:15 23:03:26 48° 99° (E) 23:07:32 435.000
M-CUBED/EXP-1 PRIME 28 Jul 23:05:47 23:08:59 18° 96° (E) 23:12:11 437.505
LO-87 28 Jul 23:05:54 23:09:25 48° 73° (ENE) 23:12:58 145.935 - 145.965
EO-88 28 Jul 23:16:49 23:19:14 17° 268° (W) 23:21:39 145.990 - 145.960
VELOX 1 28 Jul 23:25:49 23:28:18 15° 60° (ENE) 23:30:48 145.980
AIST 2D 28 Jul 23:27:14 23:28:28 11° 90° (E) 23:29:42 435.315
ISS 28 Jul 23:29:06 23:32:00 29° 2° (N) 23:34:55 437.550
SPROUT 28 Jul 23:43:41 23:47:05 23° 65° (ENE) 23:50:29 437.525
FO-29 28 Jul 23:43:59 23:50:46 50° 294° (WNW) 23:56:46 435.910
EO-79 28 Jul 23:51:40 23:52:53 11° 88° (E) 23:54:07 145.935-145.965
UNISAT 6 28 Jul 23:52:56 23:57:01 43° 290° (WNW) 00:01:03 437.425
O/OREOS (USA 219) 29 Jul 00:04:28 00:08:39 37° 58° (ENE) 00:12:51 437.305
nSIGHT-1 29 Jul 00:07:31 00:10:29 33° 11° (N) 00:13:27 .
PRISM 29 Jul 00:09:01 00:12:50 35° 292° (WNW) 00:16:39 437.425
Tancredo 1 29 Jul 00:28:16 00:31:12 63° 25° (NNE) 00:34:07 437.200
RS-15 29 Jul 00:32:50 00:45:06 86° 54° (NE) 00:56:41 29.354- 29.394
ESTCUBE 1 29 Jul 00:33:26 00:37:25 32° 264° (W) 00:41:28 437.505/2401.250
TIGRISAT 29 Jul 00:36:48 00:39:47 19° 297° (WNW) 00:42:44 435.000
M-CUBED/EXP-1 PRIME 29 Jul 00:39:06 00:43:41 59° 293° (WNW) 00:48:15 437.505
LO-87 29 Jul 00:41:28 00:43:08 13° 270° (W) 00:44:48 145.935 - 145.965
DX 1 29 Jul 00:52:00 00:55:54 33° 67° (ENE) 00:59:50 434.975-435.025
DUCHIFAT 1 29 Jul 00:52:17 00:56:13 39° 98° (E) 01:00:07 145.980
AIST 2D 29 Jul 00:58:34 01:01:58 49° 286° (WNW) 01:05:21 435.315
VELOX 1 29 Jul 00:59:47 01:04:11 70° 257° (WSW) 01:08:40 145.980
POLYITAN 1 29 Jul 01:01:08 01:05:19 62° 101° (ESE) 01:09:27 437.675
50 SAT 29 Jul 01:02:50 01:06:09 52° 73° (ENE) 01:09:30 437.505
BUGSAT 1 29 Jul 01:05:02 01:07:34 16° 91° (E) 01:10:04 437.445
ISS 29 Jul 01:05:41 01:08:54 56° 22° (NNE) 01:12:07 437.550
QB50P2 29 Jul 01:14:27 01:18:41 87° 282° (WNW) 01:22:53 145.880/145.840
SPROUT 29 Jul 01:18:47 01:22:46 37° 262° (W) 01:26:48 437.525
NANOSAT C BR1 29 Jul 01:22:07 01:26:21 87° 285° (WNW) 01:30:31 145.865
EO-79 29 Jul 01:24:57 01:29:10 74° 286° (WNW) 01:33:20 145.935-145.965
UKube-1 29 Jul 01:25:27 01:29:36 48° 70° (ENE) 01:33:47 .
FO-29 29 Jul 01:31:54 01:33:58 11° 316° (NW) 01:35:59 435.910
ITUPSAT 1 29 Jul 01:43:25 01:44:35 11° 55° (NE) 01:45:45 437.325
nSIGHT-1 29 Jul 01:43:53 01:47:07 78° 210° (SSW) 01:50:20 .
O/OREOS (USA 219) 29 Jul 01:44:11 01:47:54 25° 256° (WSW) 01:51:36 437.305
Oscar 19 29 Jul 01:55:24 01:59:41 26° 94° (E) 02:03:56 437.125/150
Tancredo 1 29 Jul 02:04:06 02:06:19 19° 222° (SW) 02:08:32 437.200
DX 1 29 Jul 02:28:24 02:32:06 27° 265° (W) 02:35:50 434.975-435.025
DUCHIFAT 1 29 Jul 02:28:29 02:31:39 21° 296° (WNW) 02:34:48 145.980
POLYITAN 1 29 Jul 02:38:15 02:40:37 15° 299° (WNW) 02:42:57 437.675
50 SAT 29 Jul 02:38:34 02:39:12 10° 270° (W) 02:39:50 437.505
BUGSAT 1 29 Jul 02:39:16 02:43:13 48° 289° (WNW) 02:47:06 437.445
ISS 29 Jul 02:42:25 02:45:13 26° 220° (SW) 02:48:01 437.550
QB50P2 29 Jul 02:53:07 02:53:46 10° 302° (WNW) 02:54:24 145.880/145.840
NANOSAT C BR1 29 Jul 03:00:46 03:01:21 10° 302° (WNW) 03:01:55 145.865
